Regional Weather Roundup
Issued by NWS Jackson, KY

Home | Current Version | Previous Version | Graphics & Text | Print | Product List | Glossary On
Versions: 1 2 3 4 5 6 7 8 9 10 11 12 13 14 15 16 17 18 19 20 21 22 23 24 25 26 27 28 29 30 31 32 33 34 35 36 37 38 39 40 41 42 43 44 45 46 47 48 49 50
000
ASUS43 KJKL 130310
RWRJKL

EAST KENTUCKY HOURLY WEATHER ROUNDUP
NATIONAL WEATHER SERVICE JACKSON KY
1100 PM EDT SAT JUL 12 2014

NOTE: "FAIR" INDICATES FEW OR NO CLOUDS BELOW 12,000 FEET WITH
NO SIGNIFICANT WEATHER AND/OR OBSTRUCTIONS TO VISIBILITY.

* THESE REPORTS ARE NOT UNDER NWS QUALITY CONTROL AND MAY NOT
  REPORT WEATHER SUCH AS PRECIPITATION AND FOG.

KYZ079-080-083-085-087-088-110-112-115-119-120-130400
...EASTERN KENTUCKY...

CITY           SKY/WX    TMP DP  RH WIND       PRES   REMARKS
JACKSON        CLEAR     78  61  55 CALM      30.14R
LONDON         PTCLDY    74  64  71 CALM      30.14R
SOMERSET*      PTCLDY    72  63  73 CALM      30.13S
MONTICELLO*    PTCLDY    69  66  90 CALM      30.13S
MIDDLESBORO*   PTCLDY    74  64  70 CALM      30.15S
HARLAN APT*    MOCLDY    72  64  78 MISG      30.17S
BIG SANDY*     CLOUDY    78  67  69 CALM      30.13S
MOREHEAD APT*    N/A     75  66  73 S5        30.12R
$$

KYZ035-036-041-042-044-050-067-078-099-130400
...CENTRAL KENTUCKY...

CITY           SKY/WX    TMP DP  RH WIND       PRES   REMARKS
MT STERLING*   PTCLDY    72  70  94 SW3       30.12R
FLEMING/MASON* MOCLDY    76  65  69 S5        30.10R
DANVILLE*      PTCLDY    72  66  83 CALM      30.12R
RICHMOND*      PTCLDY    77  61  57 S3        30.10S
LEXINGTON      PTCLDY    79  65  62 S6        30.10R
FRANKFORT      MOCLDY    76  69  79 CALM      30.07R
$$

KYZ091>093-OHZ055-061-077-WVZ005-015-034-035-042-130400
...SOUTHERN OHIO/WEST VIRGINIA...

CITY           SKY/WX    TMP DP  RH WIND       PRES   REMARKS
COVINGTON      MOCLDY    76  69  79 S5        30.06S
COLUMBUS       MOCLDY    80  64  58 S5        30.05S
DAYTON         MOCLDY    78  68  71 S9        30.05F
WILMINGTON     MOCLDY    73  67  81 S5        30.07R
HUNTINGTON     MOCLDY    79  64  60 CALM      30.08S
CHARLESTON     MOCLDY    73  66  78 CALM      30.10R
PINEVILLE*     MOCLDY    68  67  95 MISG      30.23R
BECKLEY        MOCLDY    71  61  70 S6        30.21R
BLUEFIELD      MOCLDY    74  63  68 SW3       30.24R
$$

VAZ002-007-008-TNZ017-027-036-066-071-130400
...SOUTHWEST VIRGINIA/EAST TENNESSEE...

CITY           SKY/WX    TMP DP  RH WIND       PRES   REMARKS
WISE*          MOCLDY    70  59  68 S5        30.24S
JONESVILLE*      N/A     72  68  88 CALM      30.18S
ABINGDON*      MOCLDY    76  67  73 CALM      30.21R
BRISTOL        CLOUDY    77  66  68 CALM      30.18R
KNOXVILLE      MOCLDY    77  69  76 SW6       30.14R
OAK RIDGE      PTCLDY    80  70  71 CALM      30.15S
CROSSVILLE     PTCLDY    74  68  81 CALM      30.19F
NASHVILLE      PTCLDY    82  68  62 SW3       30.10R
$$

...KEY TO REMARKS...
VSB - VISIBILITY IN MILES
WCI - WIND CHILL INDEX
HX  - HEAT INDEX

$$


USA.gov is the U.S. government's official web portal to all federal, state and local government web resources and services.